Home > Weather > Gummersbach > Past weeks

Flag for Germany Past Weather in Gummersbach, North Rhine-Westphalia, Germany — Yesterday and Last 2 Weeks

Now
63 °F

Broken clouds.


Feels Like: 63 °F
Forecast: 46 / 67 °F
Wind: 5 mph from Northwest

Location: Koeln / Bonn

Current Time: Jul 31, 2016 at 9:27:37 AM

Latest Report: Jul 31, 2016 at 8:50 AM


Visibility: N/A

Pressure: 29.92 "Hg

Humidity: 88%

Dew Point: 59 °F

Location of GummersbachLocation

Past Weather in Gummersbach — Graph

°F

Gummersbach Temperature Yesterday

Maximum temperature yesterday: 75 °F (at 2:20 PM)
Minimum temperature yesterday: 63 °F (at 12:20 AM)
Average temperature yesterday: 67 °F

High & Low Weather Summary for the Past Weeks

 TemperatureHumidityPressure
High93 °F (Jul 20, 3:20 PM)100% (Jul 18, 4:20 AM)30.30 "Hg (Jul 18, 4:20 AM)
Low55 °F (Jul 18, 5:50 AM)32% (Jul 20, 3:20 PM)29.86 "Hg (Jul 20, 5:20 PM)
Average70 °F75%30.05 "Hg
* Reported Jul 16 8:20 AM — Jul 31 8:20 AM, Gummersbach, Weather by CustomWeather, © 2016

Note: Actual official high and low records may vary slightly from our data, if they occured in-between our weather recording intervals... More about our weather records

Advertising

Gummersbach Weather History for the Previous 24 Hours

Scroll right to see more
 ConditionsComfort  
Time TempWeatherWind HumidityBarometerVisibility
8:20 AM
Sun, Jul 31
61 °FLight rain. Broken clouds.6 mph94%29.92 "HgN/A
7:50 AM61 °FLight rain. Partly sunny.2 mph94%29.92 "HgN/A
7:20 AM61 °FBroken clouds.2 mph94%29.92 "HgN/A
6:50 AM59 °FPassing clouds.3 mph94%29.92 "HgN/A
6:20 AM59 °FPassing clouds.1 mph94%29.89 "HgN/A
5:50 AM57 °FPassing clouds.5 mph94%29.89 "HgN/A
5:20 AM57 °FFog.1 mph100%29.89 "HgN/A
4:50 AM59 °FClear.1 mph94%29.89 "Hg10 mi
4:20 AM61 °FClear.2 mph88%29.92 "Hg10 mi
3:50 AM63 °FClear.2 mph83%29.89 "Hg10 mi
3:20 AM63 °FPassing clouds.3 mph83%29.92 "HgN/A
2:50 AM61 °FPassing clouds.3 mph88%29.92 "HgN/A
2:20 AM61 °FClear.2 mph94%29.89 "Hg10 mi
1:50 AM63 °FClear.1 mph88%29.92 "Hg10 mi
1:20 AM63 °FClear.1 mph88%29.92 "Hg10 mi
12:50 AM63 °FClear.2 mph88%29.92 "Hg10 mi
12:20 AM63 °FClear.3 mph83%29.92 "Hg10 mi
11:50 PM
Sat, Jul 30
64 °FClear.1 mph78%29.92 "Hg10 mi
11:20 PM64 °FClear.1 mph83%29.92 "Hg10 mi
10:50 PM64 °FClear.2 mph78%29.92 "Hg10 mi
10:20 PM64 °FClear.2 mph83%29.92 "Hg10 mi
9:50 PM66 °FSunny.1 mph73%29.92 "Hg10 mi
9:20 PM68 °FPassing clouds.3 mph69%29.92 "HgN/A
8:50 PM68 °FPassing clouds.6 mph64%29.92 "HgN/A
8:20 PM70 °FSunny.8 mph60%29.92 "Hg10 mi
7:50 PM70 °FSunny.8 mph60%29.92 "Hg10 mi
7:20 PM72 °FPartly sunny.8 mph57%29.92 "HgN/A
6:50 PM72 °FPartly sunny.10 mph57%29.92 "HgN/A
6:20 PM72 °FPartly sunny.10 mph57%29.92 "HgN/A
5:50 PM73 °FBroken clouds.5 mph57%29.92 "HgN/A
5:20 PM72 °FBroken clouds.3 mph69%29.92 "HgN/A
4:50 PM72 °FBroken clouds.5 mph65%29.92 "HgN/A
4:20 PM70 °FBroken clouds.5 mph69%29.92 "HgN/A
3:50 PM72 °FBroken clouds.3 mph65%29.92 "HgN/A
3:20 PM73 °FScattered clouds.5 mph57%29.92 "HgN/A
2:50 PM73 °FScattered clouds.6 mph57%29.92 "HgN/A
2:20 PM75 °FScattered clouds.8 mph50%29.92 "HgN/A
1:50 PM72 °FScattered clouds.7 mph61%29.92 "HgN/A
1:20 PM73 °FScattered clouds.6 mph57%29.92 "HgN/A
12:50 PM73 °FScattered clouds.7 mph53%29.92 "HgN/A
12:20 PM72 °FScattered clouds.9 mph57%29.92 "HgN/A
11:50 AM72 °FScattered clouds.10 mph61%29.92 "HgN/A
11:20 AM70 °FPartly sunny.12 mph60%29.92 "HgN/A
10:50 AM68 °FScattered clouds.12 mph64%29.92 "HgN/A
10:20 AM70 °FScattered clouds.8 mph64%29.92 "HgN/A
9:50 AM68 °FPassing clouds.12 mph64%29.92 "HgN/A
9:20 AM68 °FPassing clouds.10 mph64%29.92 "HgN/A
Weather by CustomWeather, © 2016

See weather overviewHow to use our weather pages